This is the latest recevied weather packets stored in our database for station/object M0UPS-13. If no packets are shown the sender has not sent any weather packets the latest 10 day(s).
| Time | Temp. | Humidity | Pressure | Rain* | Wind** | Luminosity | Snow |
|---|---|---|---|---|---|---|---|
| 1777790403 | 13.33° C | 85% | 1009.9 hPa | 0 mm | - | 124 W/m² | - |
| 1777790102 | 13.33° C | 86% | 1009.9 hPa | 0 mm | - | 158 W/m² | - |
| 1777789802 | 12.78° C | 89% | 1010 hPa | 0 mm | - | 138 W/m² | - |
| 1777789502 | 12.22° C | 90% | 1009.9 hPa | 0 mm | - | 107 W/m² | - |
| 1777789202 | 12.22° C | 90% | 1009.9 hPa | 0 mm | - | 89 W/m² | - |
| 1777788902 | 12.22° C | 90% | 1009.9 hPa | 0 mm | - | 61 W/m² | - |
| 1777788602 | 12.22° C | 90% | 1010 hPa | 0 mm | - | 43 W/m² | - |
| 1777788302 | 12.22° C | 90% | 1010 hPa | 0 mm | - | 36 W/m² | - |
| 1777788002 | 12.22° C | 90% | 1009.9 hPa | 0 mm | - | 34 W/m² | - |
| 1777787703 | 12.22° C | 90% | 1010.1 hPa | 0 mm | - | 28 W/m² | - |
| 1777787402 | 12.22° C | 91% | 1009.9 hPa | 0 mm | - | 25 W/m² | - |
| 1777787102 | 12.22° C | 91% | 1010 hPa | 0 mm | - | 24 W/m² | - |
| 1777786802 | 12.22° C | 91% | 1009.9 hPa | 0 mm | - | 25 W/m² | - |
| 1777786502 | 12.22° C | 91% | 1009.9 hPa | 0 mm | - | 28 W/m² | - |
| 1777786202 | 12.22° C | 92% | 1009.8 hPa | 0 mm | - | 27 W/m² | - |
| 1777785902 | 12.22° C | 92% | 1009.8 hPa | 0 mm | - | 20 W/m² | - |
| 1777785602 | 12.22° C | 92% | 1009.5 hPa | 0 mm | - | 18 W/m² | - |
| 1777785303 | 12.22° C | 92% | 1009.7 hPa | 0 mm | - | 17 W/m² | - |
| 1777785002 | 12.22° C | 92% | 1009.6 hPa | 0 mm | - | 12 W/m² | - |
| 1777784702 | 12.22° C | 92% | 1009.5 hPa | 0 mm | - | 9 W/m² | - |
| 1777784402 | 12.22° C | 91% | 1009.7 hPa | 0 mm | - | 7 W/m² | - |
| 1777784102 | 12.22° C | 91% | 1009.5 hPa | 0 mm | - | 5 W/m² | - |
| 1777783802 | 12.22° C | 91% | 1009.5 hPa | 0 mm | - | 5 W/m² | - |
| 1777783502 | 12.78° C | 91% | 1009.6 hPa | 0 mm | - | 4 W/m² | - |
| 1777783202 | 12.78° C | 91% | 1009.8 hPa | 0 mm | - | 3 W/m² | - |
* Rain latest hour (hover to see other rain measurements)
** Current wind speed in m/s (hover to see current wind gust speed)